[[{"header":{"parameterUnit":"m.s-1","parameterCategory":1,"la1":30.2991,"la2":30.254,"lo1":-89.0895,"lo2":-89.0444,"dy":0.0017,"dx":0.0017,"nx":28,"ny":28,"refTime":"2025-04-08T09:00:00:Z","depth":0,"parameterNumber":2,"parameterNumberName":"U-component_of_WINDS"},"data":[0,0,0,0,0,0,0,0,0,0,0,0,0,0,0,0,0,0,0,0,0,0,0,0,0,0,0,0,0,0,0,0,0,0,0,0,0,0,0,0,0,0,0,0,0,0,0,0,0,0,0,0,0,0,0,0,0,0,1.9356,1.9356,0,1.9402,1.9403,1.9403,1.9396,1.9395,1.9394,1.9393,1.944,1.9442,1.9444,0,0,0,0,0,0,0,0,0,0,0,0,0,1.926,1.9261,1.9356,1.9356,1.9357,1.9402,1.9403,1.9404,1.9396,1.9395,1.9394,1.9393,1.9439,1.9441,1.9444,0,0,0,0,0,0,0,0,0,0,0,0,0,1.9303,1.9262,1.9356,1.9358,1.9359,1.9402,1.9403,1.9404,1.9396,1.9395,1.9394,1.9392,1.9438,1.9441,1.9444,1.9487,0,0,1.9453,1.9455,0,0,0,0,0,0,0,0,1.9301,1.9307,1.9357,1.9358,1.9359,1.9392,1.9386,1.9432,1.9396,1.9382,1.9393,1.9392,1.9425,1.9429,1.944,1.9489,1.9491,1.9454,1.9455,1.9457,1.9457,0,0,0,0,0,0,0,1.9298,1.9305,1.9374,1.9358,1.9359,1.9357,1.9362,1.9395,1.941,1.9383,1.9383,1.9388,1.9425,1.9437,1.9441,1.9492,1.9453,1.9456,1.9458,1.9459,1.9579,1.9581,0,0,0,0,0,0,1.9294,1.9302,1.9373,1.9375,1.9326,1.936,1.9366,1.9383,1.9409,1.9412,1.9389,1.9388,1.9433,1.9438,1.9443,1.9495,1.9457,1.9459,1.9461,1.9578,1.958,1.9581,0,0,0,0,0,0,1.9292,1.93,1.9371,1.9339,1.9348,1.9363,1.9382,1.9384,1.9396,1.9414,1.9416,1.9399,1.9432,1.9439,1.9476,1.9496,1.9461,1.9463,1.9576,1.9578,1.958,1.9599,0,0,0,0,0,0,1.9289,1.93,1.9316,1.9339,1.9349,1.9403,1.9384,1.9386,1.9402,1.94,1.9424,1.9427,1.9432,1.9472,1.9479,1.95,1.9466,1.9574,1.9577,1.958,1.9596,1.9601,1.9605,0,0,0,0,0,1.9286,1.9319,1.9317,1.9325,1.937,1.9404,1.941,1.9416,1.9403,1.942,1.9432,1.9426,1.9493,1.9476,1.9484,1.9506,1.9573,1.9576,1.9579,1.9594,1.96,1.9605,0,0,0,0,0,0,1.9296,1.9322,1.932,1.9361,1.9381,1.9403,1.9424,1.9422,1.9445,1.9442,1.9448,1.9454,1.9492,1.9503,1.9483,1.9549,1.9532,1.9536,1.954,1.9546,1.955,1.9546,1.9468,0,0,0,0,0,1.9303,1.9329,1.935,1.9385,1.9395,1.9408,1.9423,1.9426,1.9446,1.9454,1.9469,1.9488,1.9514,1.9531,1.9556,1.9599,1.9604,1.9618,1.9622,1.9626,1.963,1.9654,1.9661,1.9591,1.9591,1.9591,0,0,1.9318,1.9335,1.9351,1.9387,1.9403,1.943,1.9415,1.9444,1.9464,1.9459,1.9495,1.9507,1.9529,1.957,1.9589,1.958,1.965,1.963,1.9633,1.9635,1.9658,1.9664,1.967,1.9594,1.9593,1.9593,0,0,1.9358,1.9374,1.9405,1.9421,1.9446,1.9454,1.9462,1.9485,1.9493,1.953,1.9527,1.9552,1.9596,1.9612,1.9626,1.9676,1.9672,1.9684,1.9707,1.973,1.9736,1.9741,1.9758,1.9764,1.9688,1.9688,1.9688,0,1.9373,1.9413,1.9421,1.945,1.9466,1.9465,1.9496,1.9512,1.9543,1.9554,1.9545,1.9601,1.9616,1.9661,1.9674,1.9685,1.9694,1.968,1.9734,1.9739,1.9744,1.9761,1.9767,1.9689,1.9689,1.9689,1.9689,0,1.9431,1.9459,1.9481,1.9512,1.9531,1.9561,1.9573,1.9592,1.9594,1.9604,1.9642,1.9661,1.969,1.9701,1.9703,1.9747,1.9741,1.9733,1.9715,1.9752,1.9767,1.9774,1.9691,1.9691,1.969,1.969,0,0,1.9476,1.9512,1.952,1.9534,1.9563,1.9584,1.9616,1.9645,1.966,1.9683,1.9708,1.9747,1.9741,1.9757,1.9761,1.9782,1.982,1.9772,1.9773,1.978,1.987,1.9875,1.9882,1.9819,1.982,1.9821,1.9868,0,1.9518,1.9573,1.9581,1.9629,1.9656,1.9656,1.9683,1.9703,1.9714,1.9738,1.9751,1.9778,1.9767,1.9777,1.9798,1.9811,1.9838,1.9808,1.9842,1.9843,1.9835,1.989,1.9895,1.9938,1.9874,1.9875,1.9876,0,1.9574,1.9599,1.9649,1.9675,1.9687,1.9711,1.9739,1.9762,1.9786,1.9792,1.9812,1.9814,1.9847,1.9829,1.9874,1.9853,1.9869,1.9877,1.9879,1.9881,1.9861,1.9893,1.9952,1.9958,1.9886,1.9885,1.9884,0,1.9601,1.9647,1.9684,1.9696,1.9727,1.9744,1.9758,1.9781,1.9798,1.9823,1.9835,1.9863,1.9878,1.99,1.991,1.9896,1.9955,1.9938,1.996,1.996,1.9971,1.997,2.0032,1.9983,1.9983,1.9983,1.9983,0,1.9646,1.9677,1.9697,1.9719,1.9754,1.9764,1.9799,1.9812,1.9833,1.9858,1.986,1.9884,1.9896,1.9922,1.993,1.9966,1.9973,1.9979,1.9981,1.9978,1.9977,1.9987,1.9984,1.9984,1.9984,1.9984,1.9983,0,1.9681,1.9696,1.9736,1.9763,1.977,1.9795,1.9818,1.984,1.9852,1.9884,1.9892,1.991,1.9941,1.9954,1.9991,1.9997,2.0038,2.0038,2.003,2.003,2.0052,2.0049,2.0121,2.0131,2.0077,2.0077,2.0078,0,1.9709,1.9733,1.9763,1.978,1.9795,1.9822,1.9841,1.9853,1.9872,1.9902,1.992,1.9951,1.9976,2.0025,2.0042,2.0071,2.0071,2.0094,2.0075,2.0072,2.007,2.0068,2.007,2.0097,2.0097,2.0098,2.0098,0,1.9755,1.9762,1.9788,1.9818,1.984,1.9863,1.9886,1.99,1.9916,1.9937,1.9969,1.9989,2.0028,2.0058,2.0089,2.0103,2.0103,2.0105,2.0111,2.0108,2.0102,2.0105,2.0038,2.0102,2.0102,2.0101,2.0101,2.0101,1.9787,1.9808,1.9833,1.9863,1.9882,1.9904,1.9926,1.9942,1.9969,2.0001,2.0007,2.0041,2.0066,2.0107,2.0123,2.015,2.0144,2.0153,2.0156,2.0157,2.0159,2.0099,2.0155,2.0155,2.0155,2.0155,2.0155,0,1.9833,1.9849,1.9877,1.9909,1.9933,1.9933,1.9959,1.9979,2.0009,2.0032,2.0057,2.0094,2.0125,2.0145,2.0176,2.0193,2.0194,2.0201,2.0199,2.0202,2.0162,2.0153,2.02,2.02,2.02,2.02,2.02,2.02,1.9859,1.9896,1.9906,1.9952,1.9969,2.0002,2.0017,2.0038,2.0057,2.0098,2.0124,2.0137,2.016,2.0192,2.0221,2.0226,2.0237,2.0243,2.0248,2.021,2.0205,2.0201,2.0192,2.0246,2.0246,2.0286,2.0286,2.0286]},{"header":{"parameterUnit":"m.s-1","parameterCategory":1,"la1":30.2991,"la2":30.254,"lo1":-89.0895,"lo2":-89.0444,"dy":0.0017,"dx":0.0017,"nx":28,"ny":28,"refTime":"2025-04-08T09:00:00:Z","depth":0,"parameterNumber":3,"parameterNumberName":"V-component_of_WINDS"},"data":[0,0,0,0,0,0,0,0,0,0,0,0,0,0,0,0,0,0,0,0,0,0,0,0,0,0,0,0,0,0,0,0,0,0,0,0,0,0,0,0,0,0,0,0,0,0,0,0,0,0,0,0,0,0,0,0,0,0,-5.8479,-5.8481,0,-5.8695,-5.8697,-5.8699,-5.8627,-5.8622,-5.8617,-5.8613,-5.8834,-5.8844,-5.8854,0,0,0,0,0,0,0,0,0,0,0,0,0,-5.8004,-5.8013,-5.8479,-5.8481,-5.8484,-5.8694,-5.8697,-5.87,-5.8627,-5.8622,-5.8616,-5.8611,-5.8831,-5.8843,-5.8855,0,0,0,0,0,0,0,0,0,0,0,0,0,-5.8214,-5.8016,-5.8478,-5.8473,-5.8475,-5.8694,-5.8697,-5.8701,-5.8629,-5.8621,-5.8614,-5.8608,-5.8827,-5.8842,-5.8857,-5.9094,0,0,-5.8904,-5.8911,0,0,0,0,0,0,0,0,-5.8202,-5.8231,-5.8471,-5.8474,-5.8476,-5.8626,-5.8611,-5.8833,-5.863,-5.857,-5.8613,-5.8604,-5.8771,-5.879,-5.8846,-5.9104,-5.9113,-5.8905,-5.8915,-5.8921,-5.8926,0,0,0,0,0,0,0,-5.8188,-5.8222,-5.8564,-5.8475,-5.8478,-5.846,-5.8482,-5.8652,-5.8708,-5.8575,-5.857,-5.8597,-5.8771,-5.8832,-5.8851,-5.9117,-5.8905,-5.8919,-5.8928,-5.8934,-5.9579,-5.9586,0,0,0,0,0,0,-5.8172,-5.821,-5.8557,-5.857,-5.8319,-5.8474,-5.8499,-5.8585,-5.8705,-5.8717,-5.8602,-5.8592,-5.8809,-5.8833,-5.8858,-5.9143,-5.8921,-5.8936,-5.8944,-5.9571,-5.9581,-5.9589,0,0,0,0,0,0,-5.8162,-5.8203,-5.8548,-5.8389,-5.8432,-5.849,-5.8588,-5.8593,-5.8654,-5.8726,-5.8736,-5.8655,-5.8804,-5.8837,-5.9035,-5.915,-5.8943,-5.8957,-5.9562,-5.9574,-5.9585,-5.9715,0,0,0,0,0,0,-5.8148,-5.82,-5.8291,-5.8392,-5.8441,-5.8723,-5.8595,-5.8603,-5.8681,-5.867,-5.8778,-5.8789,-5.8801,-5.9013,-5.9051,-5.9167,-5.8969,-5.9552,-5.9567,-5.9581,-5.9701,-5.973,-5.9755,0,0,0,0,0,-5.8132,-5.8319,-5.8296,-5.8338,-5.8555,-5.8729,-5.8757,-5.8767,-5.869,-5.8782,-5.8828,-5.8785,-5.9131,-5.9034,-5.9076,-5.9199,-5.9545,-5.9563,-5.958,-5.9689,-5.9725,-5.9754,0,0,0,0,0,0,-5.8231,-5.8332,-5.8308,-5.8533,-5.8623,-5.8717,-5.8832,-5.8805,-5.8918,-5.8903,-5.8911,-5.8936,-5.914,-5.9189,-5.9079,-5.9434,-5.9326,-5.9353,-5.9395,-5.9429,-5.9456,-5.944,-5.8981,0,0,0,0,0,-5.8278,-5.8411,-5.8493,-5.8684,-5.8731,-5.8774,-5.885,-5.885,-5.8944,-5.8982,-5.9042,-5.9135,-5.9264,-5.9349,-5.9472,-5.9708,-5.973,-5.9813,-5.984,-5.9862,-5.9885,-6.0013,-6.0051,-5.9647,-5.9647,-5.9647,0,0,-5.8379,-5.8451,-5.8535,-5.8706,-5.8776,-5.8913,-5.8807,-5.8957,-5.9059,-5.9004,-5.9196,-5.9244,-5.9347,-5.9565,-5.9664,-5.9613,-6.0001,-5.9884,-5.9901,-5.9913,-6.0035,-6.0073,-6.0107,-5.9659,-5.9657,-5.9655,0,0,-5.8633,-5.8701,-5.8867,-5.8939,-5.9046,-5.9074,-5.9114,-5.9212,-5.9241,-5.9434,-5.9396,-5.9517,-5.974,-5.9815,-5.9883,-6.0164,-6.0129,-6.0204,-6.0345,-6.047,-6.0502,-6.053,-6.0631,-6.0667,-6.0227,-6.0227,-6.0228,0,-5.8745,-5.895,-5.8957,-5.911,-5.9187,-5.9143,-5.9312,-5.9382,-5.9523,-5.9577,-5.9517,-5.9795,-5.9862,-6.0097,-6.0166,-6.0222,-6.0268,-6.0192,-6.0497,-6.0525,-6.0551,-6.0647,-6.0685,-6.0236,-6.0235,-6.0234,-6.0233,0,-5.9082,-5.9226,-5.9347,-5.9485,-5.9575,-5.9736,-5.9766,-5.9857,-5.9849,-5.9882,-6.0079,-6.0157,-6.0295,-6.0351,-6.0345,-6.0585,-6.055,-6.0493,-6.0385,-6.0598,-6.0689,-6.0725,-6.0248,-6.0245,-6.0242,-6.024,0,0,-5.9405,-5.9544,-5.9588,-5.965,-5.9764,-5.9875,-6.0033,-6.0168,-6.0246,-6.0345,-6.0478,-6.0667,-6.0615,-6.0692,-6.0694,-6.0803,-6.1021,-6.0733,-6.0736,-6.0784,-6.1292,-6.1334,-6.1376,-6.0998,-6.1005,-6.1011,-6.1283,0,-5.9668,-5.9946,-5.9956,-6.021,-6.0342,-6.0303,-6.0441,-6.0526,-6.0562,-6.0679,-6.0718,-6.0852,-6.0774,-6.082,-6.0926,-6.0972,-6.1123,-6.0953,-6.1122,-6.1128,-6.1098,-6.1423,-6.1469,-6.1721,-6.1318,-6.1324,-6.1329,0,-6.0013,-6.0122,-6.0389,-6.0484,-6.054,-6.0664,-6.0788,-6.0901,-6.0996,-6.1014,-6.11,-6.1086,-6.1247,-6.1134,-6.1356,-6.124,-6.131,-6.1343,-6.1353,-6.137,-6.1242,-6.1449,-6.1802,-6.184,-6.1384,-6.138,-6.1376,0,-6.0221,-6.0436,-6.0623,-6.0677,-6.0792,-6.088,-6.0933,-6.1021,-6.1101,-6.121,-6.1262,-6.1388,-6.1457,-6.1555,-6.1575,-6.1491,-6.1799,-6.1686,-6.1819,-6.1818,-6.1886,-6.1881,-6.2255,-6.193,-6.193,-6.1929,-6.1928,0,-6.0515,-6.0679,-6.0718,-6.0834,-6.1017,-6.1027,-6.1208,-6.1254,-6.1333,-6.1456,-6.143,-6.1546,-6.1565,-6.1686,-6.1703,-6.1885,-6.1917,-6.1936,-6.1939,-6.1939,-6.1937,-6.1985,-6.1968,-6.1939,-6.1937,-6.1935,-6.1933,0,-6.0779,-6.0812,-6.1013,-6.1106,-6.1133,-6.1264,-6.1343,-6.1454,-6.1486,-6.1643,-6.168,-6.1731,-6.1872,-6.1901,-6.2069,-6.208,-6.2296,-6.2281,-6.2264,-6.2263,-6.2393,-6.2381,-6.2812,-6.2869,-6.2507,-6.251,-6.2513,0,-6.0964,-6.109,-6.1196,-6.1277,-6.1333,-6.1463,-6.1545,-6.1559,-6.1646,-6.1764,-6.186,-6.1998,-6.2109,-6.2336,-6.2388,-6.2516,-6.2504,-6.2646,-6.2523,-6.2519,-6.2506,-6.2499,-6.2511,-6.267,-6.2674,-6.2677,-6.2679,0,-6.1289,-6.1299,-6.1418,-6.1543,-6.1641,-6.174,-6.1834,-6.1902,-6.1929,-6.2027,-6.217,-6.2257,-6.2427,-6.2564,-6.2692,-6.2745,-6.2718,-6.2718,-6.2755,-6.2757,-6.2742,-6.2752,-6.2329,-6.2708,-6.2705,-6.2703,-6.2701,-6.27,-6.152,-6.163,-6.1722,-6.1855,-6.1927,-6.2015,-6.2124,-6.2169,-6.2289,-6.2429,-6.243,-6.2587,-6.2679,-6.2847,-6.2909,-6.3032,-6.2987,-6.3041,-6.3055,-6.3069,-6.3081,-6.2722,-6.3055,-6.3054,-6.3053,-6.3053,-6.3052,0,-6.1844,-6.1901,-6.2023,-6.2155,-6.226,-6.2224,-6.2326,-6.2417,-6.2555,-6.2643,-6.2753,-6.2918,-6.3051,-6.3113,-6.3244,-6.3331,-6.3321,-6.3365,-6.3359,-6.3372,-6.3113,-6.3068,-6.337,-6.337,-6.337,-6.337,-6.337,-6.337,-6.2025,-6.2209,-6.223,-6.2449,-6.2505,-6.2658,-6.272,-6.2801,-6.2871,-6.3057,-6.3167,-6.3206,-6.3284,-6.3421,-6.3541,-6.3556,-6.3606,-6.3656,-6.3665,-6.3422,-6.339,-6.3359,-6.3316,-6.3666,-6.3667,-6.3913,-6.3916,-6.3917]}]]